| time (UTC) | temp F | wind direction | speed knots | gust knots | rain 1hr in | rain 24hr in | rain mn in | humidity % | barometer mb |
| 20260506135017 | 77 | 270 | 6.1 | 11.3 | 0.00 | 0.00 | 0.00 | 20 | 1009.0 |
| 20260506134815 | 78 | 270 | 7.8 | 11.3 | 0.00 | 0.00 | 0.00 | 20 | 1009.0 |
| 20260506134612 | 78 | 270 | 10.4 | 11.3 | 0.00 | 0.00 | 0.00 | 20 | 1009.1 |
| 20260506133844 | 78 | 270 | 6.1 | 10.4 | 0.00 | 0.00 | 0.00 | 20 | 1009.1 |
| 20260506133640 | 78 | 270 | 7.8 | 13.9 | 0.00 | 0.00 | 0.00 | 19 | 1009.1 |
| 20260506133442 | 78 | 270 | 12.2 | 13.9 | 0.00 | 0.00 | 0.00 | 20 | 1008.9 |
| 20260506133236 | 79 | 270 | 8.7 | 10.4 | 0.00 | 0.00 | 0.00 | 20 | 1009.1 |
| 20260506132832 | 78 | 270 | 3.5 | 8.7 | 0.00 | 0.00 | 0.00 | 21 | 1009.1 |
| 20260506132632 | 78 | 270 | 5.2 | 7.8 | 0.00 | 0.00 | 0.00 | 22 | 1009.0 |
| 20260506132225 | 77 | 270 | 7.0 | 8.7 | 0.00 | 0.00 | 0.00 | 22 | 1009.0 |
| 20260506132023 | 77 | 270 | 1.7 | 8.7 | 0.00 | 0.00 | 0.00 | 22 | 1008.9 |
| 20260506131822 | 77 | 292 | 3.5 | 6.1 | 0.00 | 0.00 | 0.00 | 22 | 1009.0 |
| 20260506131619 | 76 | 292 | 6.1 | 8.7 | 0.00 | 0.00 | 0.00 | 24 | 1008.9 |
| 20260506131416 | 76 | 270 | 5.2 | 8.7 | 0.00 | 0.00 | 0.00 | 24 | 1009.0 |
| 20260506131217 | 76 | 315 | 2.6 | 7.0 | 0.00 | 0.00 | 0.00 | 23 | 1009.0 |
| 20260506131012 | 75 | 270 | 4.3 | 7.0 | 0.00 | 0.00 | 0.00 | 23 | 1009.0 |
| 20260506130809 | 75 | 270 | 3.5 | 5.2 | 0.00 | 0.00 | 0.00 | 24 | 1009.1 |
| 20260506130606 | 74 | 270 | 3.5 | 6.1 | 0.00 | 0.00 | 0.00 | 25 | 1009.0 |
| 20260506130404 | 74 | 292 | 4.3 | 6.1 | 0.00 | 0.00 | 0.00 | 23 | 1009.0 |
| 20260506125758 | 74 | 270 | 2.6 | 6.1 | 0.00 | 0.00 | 0.00 | 24 | 1009.0 |
| 20260506125427 | 73 | 270 | 2.6 | 8.7 | 0.00 | 0.00 | 0.00 | 23 | 1009.2 |
| 20260506125355 | 73 | 270 | 2.6 | 8.7 | 0.00 | 0.00 | 0.00 | 23 | 1009.2 |
| 20260506124953 | 73 | 270 | 7.0 | 7.0 | 0.00 | 0.00 | 0.00 | 23 | 1009.1 |
| 20260506124749 | 73 | 270 | 5.2 | 7.8 | 0.00 | 0.00 | 0.00 | 22 | 1009.2 |
| 20260506124544 | 73 | 270 | 3.5 | 7.8 | 0.00 | 0.00 | 0.00 | 22 | 1009.2 |
| 20260506124343 | 73 | 270 | 7.0 | 12.2 | 0.00 | 0.00 | 0.00 | 22 | 1009.2 |
| 20260506124141 | 74 | 270 | 7.0 | 12.2 | 0.00 | 0.00 | 0.00 | 22 | 1009.1 |
| 20260506123941 | 74 | 270 | 12.2 | 12.2 | 0.00 | 0.00 | 0.00 | 23 | 1009.1 |
| 20260506123838 | 74 | 270 | 5.2 | 6.1 | 0.00 | 0.00 | 0.00 | 24 | 1009.2 |
| 20260506123231 | 73 | 270 | 5.2 | 7.8 | 0.00 | 0.00 | 0.00 | 23 | 1009.2 |
| 20260506122622 | 73 | 270 | 4.3 | 11.3 | 0.00 | 0.00 | 0.00 | 23 | 1009.3 |
| 20260506121653 | 73 | 270 | 6.1 | 7.0 | 0.00 | 0.00 | 0.00 | 23 | 1009.2 |
| 20260506121451 | 73 | 270 | 4.3 | 7.0 | 0.00 | 0.00 | 0.00 | 24 | 1009.3 |
| 20260506120642 | 74 | 270 | 3.5 | 9.6 | 0.00 | 0.00 | 0.00 | 22 | 1009.3 |
| 20260506120234 | 74 | 270 | 4.3 | 8.7 | 0.00 | 0.00 | 0.00 | 21 | 1009.2 |
| 20260506115832 | 75 | 270 | 8.7 | 9.6 | 0.00 | 0.00 | 0.00 | 22 | 1009.1 |
| 20260506115224 | 76 | 270 | 7.0 | 11.3 | 0.00 | 0.00 | 0.00 | 22 | 1009.1 |
| 20260506114859 | 76 | 292 | 1.7 | 6.1 | 0.00 | 0.00 | 0.00 | 22 | 1009.2 |
| 20260506114659 | 76 | 270 | 5.2 | 6.1 | 0.00 | 0.00 | 0.00 | 21 | 1009.3 |
| 20260506114455 | 77 | 270 | 3.5 | 7.0 | 0.00 | 0.00 | 0.00 | 22 | 1009.4 |
| 20260506113852 | 77 | 270 | 1.7 | 6.1 | 0.00 | 0.00 | 0.00 | 23 | 1009.3 |
| 20260506112635 | 76 | 270 | 5.2 | 5.2 | 0.00 | 0.00 | 0.00 | 25 | 1009.4 |
| 20260506111218 | 75 | 270 | 2.6 | 5.2 | 0.00 | 0.00 | 0.00 | 26 | 1009.6 |
| 20260506110610 | 74 | 270 | 1.7 | 11.3 | 0.00 | 0.00 | 0.00 | 25 | 1009.7 |
| 20260506110236 | 74 | 270 | 7.8 | 7.8 | 0.00 | 0.00 | 0.00 | 26 | 1009.6 |
| 20260506104011 | 73 | 270 | 8.7 | 8.7 | 0.00 | 0.00 | 0.00 | 27 | 1009.8 |
| 20260506103810 | 73 | 270 | 6.1 | 7.0 | 0.00 | 0.00 | 0.00 | 27 | 1009.8 |
| 20260506103404 | 73 | 270 | 2.6 | 4.3 | 0.00 | 0.00 | 0.00 | 27 | 1009.8 |
| 20260506102959 | 74 | 270 | 1.7 | 6.1 | 0.00 | 0.00 | 0.00 | 27 | 1009.9 |
| 20260506101543 | 74 | 270 | 2.6 | 7.8 | 0.00 | 0.00 | 0.00 | 26 | 1009.9 |
| 20260506100325 | 74 | 270 | 3.5 | 4.3 | 0.00 | 0.00 | 0.00 | 28 | 1009.8 |
| 20260506100123 | 74 | 270 | 2.6 | 4.3 | 0.00 | 0.00 | 0.00 | 28 | 1009.9 |
| 20260506095721 | 74 | 270 | 2.6 | 6.1 | 0.00 | 0.00 | 0.00 | 31 | 1009.9 |
| 20260506094303 | 72 | 270 | 3.5 | 6.1 | 0.00 | 0.00 | 0.00 | 31 | 1009.9 |
| 20260506092439 | 70 | 315 | 4.3 | 6.1 | 0.00 | 0.00 | 0.00 | 33 | 1009.9 |
| 20260506091504 | 70 | 270 | 4.3 | 7.0 | 0.00 | 0.00 | 0.00 | 33 | 1009.9 |
| 20260506091430 | 70 | 270 | 4.3 | 7.0 | 0.00 | 0.00 | 0.00 | 33 | 1009.9 |
| 20260506090619 | 70 | 270 | 1.7 | 10.4 | 0.00 | 0.00 | 0.00 | 33 | 1009.9 |
| 20260506090012 | 70 | 270 | 4.3 | 11.3 | 0.00 | 0.00 | 0.00 | 33 | 1009.8 |
| 20260506085810 | 70 | 270 | 7.8 | 11.3 | 0.00 | 0.00 | 0.00 | 33 | 1009.7 |
| 20260506085405 | 70 | 270 | 7.8 | 7.8 | 0.00 | 0.00 | 0.00 | 36 | 1009.7 |
| 20260506084354 | 69 | 315 | 7.8 | 7.8 | 0.00 | 0.00 | 0.00 | 35 | 1009.6 |
| 20260506083335 | 67 | 270 | 2.6 | 7.0 | 0.00 | 0.00 | 0.00 | 39 | 1009.7 |
| 20260506083134 | 67 | 270 | 4.3 | 7.0 | 0.00 | 0.00 | 0.00 | 39 | 1009.6 |
| 20260506082317 | 66 | 270 | 2.6 | 7.0 | 0.00 | 0.00 | 0.00 | 40 | 1009.7 |
| 20260506081115 | 65 | 270 | 2.6 | 6.1 | 0.00 | 0.00 | 0.00 | 42 | 1009.6 |
| 20260506080510 | 64 | 270 | 2.6 | 3.5 | 0.00 | 0.00 | 0.00 | 42 | 1009.7 |
| 20260506073350 | 59 | 292 | 110.4 | 110.4 | 0.00 | 0.00 | 0.00 | 48 | 1009.9 |
| 20260506073314 | 59 | 292 | 110.4 | 110.4 | 0.00 | 0.00 | 0.00 | 48 | 1009.9 |
| 20260506072842 | 58 | 270 | 5.2 | 6.1 | 0.00 | 0.00 | 0.00 | 51 | 1009.7 |
| 20260506072640 | 58 | 292 | 3.5 | 3.5 | 0.00 | 0.00 | 0.00 | 52 | 1010.0 |
| 20260506072438 | 57 | 315 | 3.5 | 108.6 | 0.00 | 0.00 | 0.00 | 51 | 1009.9 |
| 20260506072241 | 57 | 292 | 1.7 | 108.6 | 0.00 | 0.00 | 0.00 | 52 | 1009.9 |
| 20260506072133 | 57 | 270 | 108.6 | 108.6 | 0.00 | 0.00 | 0.00 | 51 | 1009.9 |
| 20260506071648 | 56 | 292 | 3.5 | 4.3 | 0.00 | 0.00 | 0.00 | 50 | 1009.9 |
| 20260506071453 | 56 | 292 | 2.6 | 4.3 | 0.00 | 0.00 | 0.00 | 49 | 1009.9 |
| 20260506071246 | 56 | 315 | 3.5 | 4.3 | 0.00 | 0.00 | 0.00 | 50 | 1009.9 |
| 20260506071047 | 56 | 270 | 0.9 | 4.3 | 0.00 | 0.00 | 0.00 | 50 | 1009.9 |
| 20260506070841 | 56 | 315 | 2.6 | 3.5 | 0.00 | 0.00 | 0.00 | 51 | 1009.6 |
| 20260506070636 | 55 | 337 | 0.9 | 1.7 | 0.00 | 0.00 | 0.00 | 51 | 1009.7 |
| 20260506070435 | 55 | 337 | 0.0 | 3.5 | 0.00 | 0.00 | 0.00 | 51 | 1009.8 |
| 20260506062145 | 53 | 225 | 2.6 | 5.2 | 0.00 | 0.00 | 0.00 | 52 | 1009.8 |
| 20260506061741 | 53 | 225 | 0.0 | 4.3 | 0.00 | 0.00 | 0.00 | 53 | 1009.8 |
| 20260506060932 | 53 | 337 | 2.6 | 4.3 | 0.00 | 0.00 | 0.00 | 53 | 1009.7 |
| 20260506060528 | 53 | 315 | 3.5 | 6.1 | 0.00 | 0.00 | 0.00 | 53 | 1009.7 |
| 20260506060328 | 53 | 270 | 1.7 | 6.1 | 0.00 | 0.00 | 0.00 | 53 | 1009.9 |
| 20260506051234 | 52 | 315 | 3.5 | 6.1 | 0.00 | 0.00 | 0.00 | 54 | 1009.4 |
| 20260506051026 | 52 | 326 | 4.3 | 6.1 | 0.00 | 0.00 | 0.00 | 55 | 1009.2 |
| 20260506050625 | 52 | 315 | 0.9 | 3.5 | 0.00 | 0.00 | 0.00 | 55 | 1009.3 |
| 20260506050218 | 52 | 292 | 2.6 | 5.2 | 0.00 | 0.00 | 0.00 | 56 | 1009.5 |
| 20260506044801 | 53 | 292 | 6.1 | 6.1 | 0.00 | 0.00 | 0.00 | 54 | 1009.5 |
| 20260506043747 | 53 | 292 | 2.6 | 5.2 | 0.00 | 0.00 | 0.00 | 55 | 1009.1 |
| 20260506043345 | 53 | 292 | 0.9 | 4.3 | 0.00 | 0.00 | 0.00 | 55 | 1009.4 |
| 20260506042938 | 53 | 292 | 2.6 | 7.0 | 0.00 | 0.00 | 0.00 | 55 | 1009.5 |
| 20260506042206 | 53 | 348 | 0.9 | 5.2 | 0.00 | 0.00 | 0.00 | 55 | 1009.3 |
| 20260506041930 | 53 | 348 | 2.6 | 3.5 | 0.00 | 0.00 | 0.00 | 56 | 1009.3 |
| 20260506041320 | 53 | 281 | 2.6 | 5.2 | 0.00 | 0.00 | 0.00 | 53 | 1009.2 |
| 20260506040713 | 53 | 292 | 0.9 | 4.3 | 0.00 | 0.00 | 0.00 | 55 | 1009.2 |
| 20260506040511 | 53 | 337 | 0.9 | 3.5 | 0.00 | 0.00 | 0.00 | 55 | 1009.0 |
| 20260506040107 | 53 | 281 | 0.9 | 2.6 | 0.00 | 0.00 | 0.00 | 55 | 1008.8 |
| 20260506035459 | 53 | 270 | 1.7 | 4.3 | 0.00 | 0.00 | 0.00 | 55 | 1009.1 |
| 20260506035257 | 53 | 303 | 1.7 | 4.3 | 0.00 | 0.00 | 0.00 | 55 | 1009.2 |
| 20260506034047 | 53 | 315 | 3.5 | 5.2 | 0.00 | 0.00 | 0.00 | 55 | 1009.2 |
| 20260506033748 | 53 | 292 | 2.6 | 5.2 | 0.00 | 0.00 | 0.00 | 56 | 1008.9 |
| 20260506033645 | 53 | 292 | 2.6 | 5.2 | 0.00 | 0.00 | 0.00 | 56 | 1008.9 |
| 20260506032627 | 53 | 292 | 0.9 | 5.2 | 0.00 | 0.00 | 0.00 | 55 | 1009.4 |
| 20260506032022 | 53 | 337 | 0.9 | 5.2 | 0.00 | 0.00 | 0.00 | 55 | 1009.3 |
| 20260506031819 | 53 | 0 | 0.9 | 5.2 | 0.00 | 0.00 | 0.00 | 55 | 1009.3 |
| 20260506031011 | 53 | 326 | 1.7 | 5.2 | 0.00 | 0.00 | 0.00 | 56 | 1009.1 |
| 20260506030205 | 53 | 315 | 2.6 | 4.3 | 0.00 | 0.00 | 0.00 | 56 | 1009.1 |
| 20260506025757 | 53 | 303 | 0.9 | 3.5 | 0.00 | 0.00 | 0.00 | 53 | 1008.7 |
| 20260506025150 | 53 | 270 | 0.0 | 3.5 | 0.00 | 0.00 | 0.00 | 55 | 1009.3 |
| 20260506024139 | 53 | 337 | 0.9 | 5.2 | 0.00 | 0.00 | 0.00 | 55 | 1009.1 |
| 20260506023734 | 53 | 303 | 3.5 | 3.5 | 0.00 | 0.00 | 0.00 | 56 | 1009.0 |
| 20260506023329 | 53 | 303 | 1.7 | 3.5 | 0.00 | 0.00 | 0.00 | 56 | 1009.0 |
| 20260506022115 | 53 | 292 | 0.9 | 3.5 | 0.00 | 0.00 | 0.00 | 56 | 1008.8 |
| 20260506021710 | 53 | 348 | 0.0 | 4.3 | 0.00 | 0.00 | 0.00 | 56 | 1009.2 |
| 20260506021508 | 53 | 315 | 2.6 | 4.3 | 0.00 | 0.00 | 0.00 | 56 | 1009.5 |
| 20260506020905 | 53 | 337 | 1.7 | 2.6 | 0.00 | 0.00 | 0.00 | 57 | 1008.7 |
| 20260506020457 | 53 | 348 | 0.0 | 1.7 | 0.00 | 0.00 | 0.00 | 57 | 1009.1 |
| 20260506020255 | 53 | 337 | 0.9 | 0.9 | 0.00 | 0.00 | 0.00 | 57 | 1009.2 |
| 20260506014511 | 53 | 225 | 0.9 | 3.5 | 0.00 | 0.00 | 0.00 | 56 | 1009.2 |
| 20260506014434 | 53 | 225 | 0.9 | 3.5 | 0.00 | 0.00 | 0.00 | 56 | 1009.2 |
| 20260506013831 | 53 | 270 | 2.6 | 2.6 | 0.00 | 0.00 | 0.00 | 56 | 1009.1 |
| 20260506013716 | 53 | 292 | 2.6 | 2.6 | 0.00 | 0.00 | 0.00 | 56 | 1009.3 |
| 20260506013625 | 53 | 292 | 2.6 | 2.6 | 0.00 | 0.00 | 0.00 | 56 | 1009.3 |
| 20260506013519 | 53 | 292 | 0.9 | 1.7 | 0.00 | 0.00 | 0.00 | 57 | 1009.1 |
| 20260506013423 | 53 | 292 | 0.9 | 1.7 | 0.00 | 0.00 | 0.00 | 57 | 1009.1 |
| 20260506012613 | 53 | 326 | 0.0 | 1.7 | 0.00 | 0.00 | 0.00 | 57 | 1008.6 |
| 20260506011603 | 53 | 337 | 0.9 | 2.6 | 0.00 | 0.00 | 0.00 | 56 | 1009.2 |
| 20260506011001 | 53 | 337 | 1.7 | 2.6 | 0.00 | 0.00 | 0.00 | 57 | 1009.2 |
| 20260506010754 | 53 | 292 | 0.9 | 1.7 | 0.00 | 0.00 | 0.00 | 56 | 1009.5 |
| 20260506010551 | 53 | 337 | 0.9 | 2.6 | 0.00 | 0.00 | 0.00 | 56 | 1009.4 |
| 20260506005944 | 53 | 292 | 0.0 | 3.5 | 0.00 | 0.00 | 0.00 | 56 | 1009.4 |
| 20260506005337 | 53 | 326 | 1.7 | 2.6 | 0.00 | 0.00 | 0.00 | 56 | 1009.2 |
| 20260506005139 | 53 | 281 | 0.9 | 2.6 | 0.00 | 0.00 | 0.00 | 56 | 1009.6 |
| 20260506004933 | 53 | 348 | 2.6 | 4.3 | 0.00 | 0.00 | 0.00 | 56 | 1009.3 |
| 20260506004326 | 53 | 337 | 2.6 | 2.6 | 0.00 | 0.00 | 0.00 | 56 | 1009.3 |
| 20260506003922 | 53 | 337 | 2.6 | 2.6 | 0.00 | 0.00 | 0.00 | 54 | 1009.6 |
| 20260506003113 | 53 | 337 | 0.9 | 4.3 | 0.00 | 0.00 | 0.00 | 56 | 1009.4 |
| 20260506002708 | 53 | 292 | 4.3 | 5.2 | 0.00 | 0.00 | 0.00 | 54 | 1009.7 |
| 20260506002505 | 53 | 281 | 3.5 | 5.2 | 0.00 | 0.00 | 0.00 | 56 | 1009.7 |
| 20260506002120 | 53 | 315 | 2.6 | 4.3 | 0.00 | 0.00 | 0.00 | 52 | 1009.9 |
| 20260506001454 | 53 | 348 | 0.9 | 5.2 | 0.00 | 0.00 | 0.00 | 56 | 1009.5 |
| 20260506001259 | 53 | 292 | 2.6 | 5.2 | 0.00 | 0.00 | 0.00 | 55 | 1009.8 |
| 20260506001052 | 53 | 315 | 4.3 | 5.2 | 0.00 | 0.00 | 0.00 | 57 | 1009.6 |
| 20260506000646 | 53 | 337 | 3.5 | 3.5 | 0.00 | 0.00 | 0.00 | 57 | 1009.7 |
| 20260506000445 | 53 | 281 | 3.5 | 4.3 | 0.00 | 0.00 | 0.00 | 57 | 1009.7 |
| 20260506000318 | 53 | 337 | 2.6 | 4.3 | 0.00 | 0.00 | 0.00 | 55 | 1009.9 |
| 20260506000241 | 53 | 337 | 2.6 | 4.3 | 0.00 | 0.00 | 0.00 | 55 | 1009.9 |
| 20260505235836 | 53 | 315 | 3.5 | 3.5 | 0.00 | 0.00 | 0.00 | 56 | 1010.0 |
| 20260505235634 | 53 | 225 | 0.9 | 4.3 | 0.00 | 0.00 | 0.00 | 54 | 1009.8 |
| 20260505235431 | 53 | 337 | 1.7 | 4.3 | 0.00 | 0.00 | 0.00 | 56 | 1010.1 |
| 20260505235028 | 53 | 348 | 2.6 | 5.2 | 0.00 | 0.00 | 0.00 | 54 | 1010.0 |
| 20260505234825 | 53 | 337 | 3.5 | 5.2 | 0.00 | 0.00 | 0.00 | 56 | 1009.8 |
| 20260505234420 | 53 | 315 | 4.3 | 5.2 | 0.00 | 0.00 | 0.00 | 56 | 1009.9 |
| 20260505234017 | 53 | 292 | 1.7 | 5.2 | 0.00 | 0.00 | 0.00 | 56 | 1010.2 |
| 20260505233814 | 53 | 315 | 2.6 | 5.2 | 0.00 | 0.00 | 0.00 | 57 | 1009.6 |
| 20260505233611 | 53 | 292 | 5.2 | 5.2 | 0.00 | 0.00 | 0.00 | 57 | 1010.1 |
| 20260505233207 | 53 | 315 | 1.7 | 4.3 | 0.00 | 0.00 | 0.00 | 57 | 1009.9 |
| 20260505232802 | 53 | 292 | 2.6 | 4.3 | 0.00 | 0.00 | 0.00 | 57 | 1010.3 |
| 20260505232628 | 53 | 292 | 3.5 | 6.1 | 0.00 | 0.00 | 0.00 | 56 | 1010.1 |
| 20260505232358 | 53 | 292 | 3.5 | 6.1 | 0.00 | 0.00 | 0.00 | 53 | 1010.1 |
| 20260505232155 | 53 | 292 | 6.1 | 7.0 | 0.00 | 0.00 | 0.00 | 56 | 1009.9 |
| 20260505231955 | 53 | 292 | 3.5 | 7.0 | 0.00 | 0.00 | 0.00 | 56 | 1010.0 |
| 20260505231839 | 54 | 292 | 3.5 | 5.2 | 0.00 | 0.00 | 0.00 | 56 | 1010.2 |
| 20260505231755 | 54 | 292 | 3.5 | 5.2 | 0.00 | 0.00 | 0.00 | 56 | 1010.2 |
| 20260505231533 | 54 | 292 | 2.6 | 6.1 | 0.00 | 0.00 | 0.00 | 57 | 1010.3 |
| 20260505230931 | 54 | 292 | 4.3 | 6.1 | 0.00 | 0.00 | 0.00 | 56 | 1009.6 |
| 20260505230725 | 54 | 326 | 2.6 | 5.2 | 0.00 | 0.00 | 0.00 | 57 | 1010.3 |
| 20260505230524 | 54 | 292 | 3.5 | 5.2 | 0.00 | 0.00 | 0.00 | 57 | 1010.2 |
| 20260505230320 | 54 | 281 | 2.6 | 5.2 | 0.00 | 0.00 | 0.00 | 56 | 1009.8 |
| 20260505230118 | 54 | 337 | 4.3 | 4.3 | 0.00 | 0.00 | 0.00 | 58 | 1010.2 |
| 20260505225915 | 54 | 315 | 2.6 | 5.2 | 0.00 | 0.00 | 0.00 | 56 | 1010.1 |
| 20260505225714 | 54 | 315 | 3.5 | 5.2 | 0.00 | 0.00 | 0.00 | 55 | 1010.2 |
| 20260505225308 | 54 | 292 | 0.9 | 4.3 | 0.00 | 0.00 | 0.00 | 57 | 1009.9 |
| 20260505224701 | 54 | 315 | 0.9 | 2.6 | 0.00 | 0.00 | 0.00 | 53 | 1010.2 |
| 20260505224503 | 54 | 0 | 0.9 | 4.3 | 0.00 | 0.00 | 0.00 | 57 | 1010.5 |
| 20260505224257 | 54 | 281 | 0.9 | 4.3 | 0.00 | 0.00 | 0.00 | 58 | 1010.2 |
| 20260505223738 | 54 | 337 | 0.9 | 2.6 | 0.00 | 0.00 | 0.00 | 57 | 1010.0 |
| 20260505223654 | 54 | 337 | 0.9 | 2.6 | 0.00 | 0.00 | 0.00 | 57 | 1010.0 |
| 20260505223451 | 54 | 315 | 1.7 | 3.5 | 0.00 | 0.00 | 0.00 | 58 | 1010.1 |
| 20260505223046 | 54 | 337 | 1.7 | 2.6 | 0.00 | 0.00 | 0.00 | 57 | 1010.3 |
| 20260505221631 | 54 | 270 | 1.7 | 3.5 | 0.00 | 0.00 | 0.00 | 57 | 1010.3 |
| 20260505221426 | 54 | 270 | 0.9 | 3.5 | 0.00 | 0.00 | 0.00 | 56 | 1010.3 |
| 20260505221023 | 54 | 281 | 0.9 | 2.6 | 0.00 | 0.00 | 0.00 | 56 | 1010.2 |
| 20260505220820 | 54 | 337 | 0.0 | 3.5 | 0.00 | 0.00 | 0.00 | 56 | 1010.3 |
| 20260505220618 | 54 | 292 | 1.7 | 3.5 | 0.00 | 0.00 | 0.00 | 59 | 1010.3 |
| 20260505220414 | 54 | 292 | 1.7 | 2.6 | 0.00 | 0.00 | 0.00 | 56 | 1010.0 |
| 20260505220215 | 54 | 337 | 0.0 | 1.7 | 0.00 | 0.00 | 0.00 | 58 | 1010.5 |
| 20260505220011 | 54 | 0 | 0.0 | 1.7 | 0.00 | 0.00 | 0.00 | 57 | 1010.5 |
| 20260505215857 | 54 | 292 | 0.9 | 1.7 | 0.00 | 0.00 | 0.00 | 57 | 1010.4 |
| 20260505215813 | 54 | 292 | 0.9 | 1.7 | 0.00 | 0.00 | 0.00 | 57 | 1010.4 |
| 20260505215403 | 54 | 225 | 0.0 | 1.7 | 0.00 | 0.00 | 0.00 | 57 | 1010.3 |
| 20260505215001 | 53 | 292 | 0.9 | 2.6 | 0.00 | 0.00 | 0.00 | 54 | 1010.0 |
| 20260505214800 | 53 | 303 | 0.9 | 0.9 | 0.00 | 0.00 | 0.00 | 57 | 1010.4 |
| 20260505214552 | 53 | 225 | 0.0 | 1.7 | 0.00 | 0.00 | 0.00 | 57 | 1010.7 |
| 20260505214148 | 53 | 225 | 0.9 | 2.6 | 0.00 | 0.00 | 0.00 | 56 | 1010.4 |
| 20260505213946 | 53 | 303 | 0.9 | 2.6 | 0.00 | 0.00 | 0.00 | 57 | 1010.1 |
| 20260505213012 | 54 | 270 | 3.5 | 4.3 | 0.00 | 0.00 | 0.00 | 56 | 1010.9 |
| 20260505212935 | 54 | 270 | 3.5 | 4.3 | 0.00 | 0.00 | 0.00 | 56 | 1010.9 |
| 20260505212732 | 53 | 270 | 3.5 | 4.3 | 0.00 | 0.00 | 0.00 | 57 | 1010.1 |
| 20260505212328 | 53 | 270 | 3.5 | 4.3 | 0.00 | 0.00 | 0.00 | 59 | 1010.6 |
| 20260505212126 | 53 | 292 | 2.6 | 2.6 | 0.00 | 0.00 | 0.00 | 57 | 1010.7 |
| 20260505211926 | 53 | 337 | 0.0 | 1.7 | 0.00 | 0.00 | 0.00 | 58 | 1010.3 |
| 20260505211723 | 53 | 315 | 0.0 | 1.7 | 0.00 | 0.00 | 0.00 | 58 | 1010.7 |
| 20260505211519 | 53 | 292 | 1.7 | 1.7 | 0.00 | 0.00 | 0.00 | 58 | 1010.4 |
| 20260505211318 | 53 | 225 | 0.0 | 2.6 | 0.00 | 0.00 | 0.00 | 58 | 1010.6 |
| 20260505211115 | 53 | 0 | 0.0 | 2.6 | 0.00 | 0.00 | 0.00 | 57 | 1010.1 |
| 20260505210912 | 53 | 225 | 0.0 | 2.6 | 0.00 | 0.00 | 0.00 | 56 | 1010.5 |
| 20260505210511 | 53 | 225 | 2.6 | 2.6 | 0.00 | 0.00 | 0.00 | 57 | 1010.5 |
| 20260505210305 | 53 | 225 | 1.7 | 2.6 | 0.00 | 0.00 | 0.00 | 57 | 1010.6 |
| 20260505205901 | 53 | 225 | 0.9 | 2.6 | 0.00 | 0.00 | 0.00 | 57 | 1010.4 |
| 20260505205658 | 53 | 225 | 1.7 | 3.5 | 0.00 | 0.00 | 0.00 | 57 | 1010.1 |
| 20260505205456 | 53 | 225 | 0.0 | 4.3 | 0.00 | 0.00 | 0.00 | 57 | 1010.5 |
| 20260505205051 | 54 | 292 | 0.9 | 3.5 | 0.00 | 0.00 | 0.00 | 57 | 1010.5 |
| 20260505204853 | 54 | 292 | 1.7 | 3.5 | 0.00 | 0.00 | 0.00 | 57 | 1010.5 |
| 20260505204647 | 54 | 292 | 1.7 | 3.5 | 0.00 | 0.00 | 0.00 | 57 | 1010.3 |
| 20260505204243 | 54 | 270 | 0.0 | 1.7 | 0.00 | 0.00 | 0.00 | 58 | 1010.1 |
| 20260505203838 | 53 | 303 | 0.0 | 2.6 | 0.00 | 0.00 | 0.00 | 58 | 1010.5 |
| 20260505203433 | 53 | 315 | 0.9 | 2.6 | 0.00 | 0.00 | 0.00 | 57 | 1010.3 |
| 20260505203029 | 53 | 225 | 2.6 | 2.6 | 0.00 | 0.00 | 0.00 | 58 | 1010.4 |
| 20260505202625 | 53 | 315 | 0.9 | 2.6 | 0.00 | 0.00 | 0.00 | 58 | 1010.0 |
| 20260505202422 | 53 | 292 | 1.7 | 4.3 | 0.00 | 0.00 | 0.00 | 53 | 1010.3 |
| 20260505202219 | 53 | 292 | 2.6 | 4.3 | 0.00 | 0.00 | 0.00 | 56 | 1010.3 |
| 20260505201815 | 53 | 225 | 0.0 | 1.7 | 0.00 | 0.00 | 0.00 | 56 | 1010.2 |
| 20260505201614 | 53 | 292 | 0.9 | 0.9 | 0.00 | 0.00 | 0.00 | 57 | 1010.2 |
| 20260505201410 | 53 | 225 | 0.0 | 1.7 | 0.00 | 0.00 | 0.00 | 57 | 1010.3 |
| 20260505201209 | 53 | 225 | 0.9 | 1.7 | 0.00 | 0.00 | 0.00 | 58 | 1010.2 |
| 20260505201006 | 53 | 337 | 0.9 | 1.7 | 0.00 | 0.00 | 0.00 | 57 | 1010.2 |
| 20260505200804 | 53 | 337 | 0.9 | 1.7 | 0.00 | 0.00 | 0.00 | 57 | 1010.3 |
| 20260505200602 | 53 | 225 | 1.7 | 3.5 | 0.00 | 0.00 | 0.00 | 58 | 1010.2 |
| 20260505195955 | 53 | 337 | 3.5 | 5.2 | 0.00 | 0.00 | 0.00 | 58 | 1010.3 |
| 20260505195753 | 53 | 315 | 3.5 | 4.3 | 0.00 | 0.00 | 0.00 | 55 | 1010.0 |
| 20260505195550 | 53 | 315 | 0.9 | 2.6 | 0.00 | 0.00 | 0.00 | 57 | 1009.8 |
| 20260505195347 | 53 | 281 | 2.6 | 4.3 | 0.00 | 0.00 | 0.00 | 56 | 1009.7 |
| 20260505195145 | 53 | 337 | 3.5 | 5.2 | 0.00 | 0.00 | 0.00 | 56 | 1010.0 |
| 20260505194943 | 53 | 337 | 2.6 | 5.2 | 0.00 | 0.00 | 0.00 | 57 | 1009.8 |
| 20260505194741 | 53 | 303 | 3.5 | 6.1 | 0.00 | 0.00 | 0.00 | 56 | 1009.9 |
| 20260505194540 | 53 | 292 | 3.5 | 6.1 | 0.00 | 0.00 | 0.00 | 55 | 1010.0 |
| 20260505194437 | 53 | 281 | 3.5 | 5.2 | 0.00 | 0.00 | 0.00 | 56 | 1010.0 |
| 20260505194337 | 53 | 281 | 3.5 | 5.2 | 0.00 | 0.00 | 0.00 | 56 | 1010.0 |
| 20260505194137 | 53 | 337 | 5.2 | 5.2 | 0.00 | 0.00 | 0.00 | 57 | 1010.0 |
| 20260505193937 | 53 | 292 | 3.5 | 5.2 | 0.00 | 0.00 | 0.00 | 57 | 1009.5 |
| 20260505193730 | 54 | 292 | 3.5 | 5.2 | 0.00 | 0.00 | 0.00 | 58 | 1010.1 |
| 20260505193528 | 54 | 315 | 1.7 | 6.1 | 0.00 | 0.00 | 0.00 | 53 | 1009.9 |
| 20260505193123 | 54 | 337 | 4.3 | 5.2 | 0.00 | 0.00 | 0.00 | 55 | 1010.0 |
| 20260505192921 | 54 | 292 | 1.7 | 2.6 | 0.00 | 0.00 | 0.00 | 57 | 1010.0 |
| 20260505192718 | 54 | 337 | 0.9 | 3.5 | 0.00 | 0.00 | 0.00 | 57 | 1010.1 |
| 20260505192516 | 54 | 292 | 1.7 | 3.5 | 0.00 | 0.00 | 0.00 | 56 | 1009.9 |
| 20260505192313 | 54 | 225 | 1.7 | 2.6 | 0.00 | 0.00 | 0.00 | 54 | 1010.2 |
| 20260505192000 | 54 | 337 | 1.7 | 5.2 | 0.00 | 0.00 | 0.00 | 56 | 1010.0 |
| 20260505191909 | 54 | 337 | 1.7 | 5.2 | 0.00 | 0.00 | 0.00 | 56 | 1010.0 |
| 20260505191707 | 54 | 348 | 4.3 | 5.2 | 0.00 | 0.00 | 0.00 | 56 | 1009.7 |
| 20260505191450 | 54 | 348 | 4.3 | 6.1 | 0.00 | 0.00 | 0.00 | 56 | 1010.2 |
| 20260505191247 | 54 | 225 | 2.6 | 6.1 | 0.00 | 0.00 | 0.00 | 56 | 1010.2 |
| 20260505191045 | 54 | 292 | 2.6 | 6.1 | 0.00 | 0.00 | 0.00 | 56 | 1010.0 |
| 20260505190034 | 54 | 292 | 2.6 | 6.1 | 0.00 | 0.00 | 0.00 | 56 | 1009.6 |
| 20260505185629 | 54 | 315 | 2.6 | 6.1 | 0.00 | 0.00 | 0.00 | 56 | 1009.4 |
| 20260505185224 | 54 | 258 | 6.1 | 6.1 | 0.00 | 0.00 | 0.00 | 53 | 1009.8 |
| 20260505185022 | 55 | 337 | 5.2 | 6.1 | 0.00 | 0.00 | 0.00 | 54 | 1010.0 |
| 20260505184821 | 55 | 292 | 5.2 | 7.0 | 0.00 | 0.00 | 0.00 | 57 | 1010.0 |
| 20260505184416 | 55 | 281 | 6.1 | 10.4 | 0.00 | 0.00 | 0.00 | 57 | 1010.0 |
| 20260505184213 | 55 | 337 | 7.8 | 10.4 | 0.00 | 0.00 | 0.00 | 57 | 1010.1 |
| 20260505183809 | 55 | 225 | 7.0 | 7.8 | 0.00 | 0.00 | 0.00 | 56 | 1010.0 |
| 20260505183404 | 55 | 315 | 3.5 | 6.1 | 0.00 | 0.00 | 0.00 | 57 | 1009.7 |
| 20260505183202 | 55 | 326 | 3.5 | 6.1 | 0.00 | 0.00 | 0.00 | 57 | 1009.8 |
| 20260505182757 | 55 | 337 | 3.5 | 5.2 | 0.00 | 0.00 | 0.00 | 57 | 1009.5 |
| 20260505182353 | 55 | 315 | 3.5 | 6.1 | 0.00 | 0.00 | 0.00 | 57 | 1009.7 |
| 20260505182150 | 55 | 315 | 4.3 | 4.3 | 0.00 | 0.00 | 0.00 | 58 | 1009.9 |
| 20260505181949 | 55 | 292 | 2.6 | 4.3 | 0.00 | 0.00 | 0.00 | 57 | 1009.8 |
| 20260505181827 | 55 | 292 | 2.6 | 4.3 | 0.00 | 0.00 | 0.00 | 57 | 1009.7 |
| 20260505181746 | 55 | 292 | 2.6 | 4.3 | 0.00 | 0.00 | 0.00 | 57 | 1009.7 |
| 20260505181544 | 55 | 337 | 0.9 | 5.2 | 0.00 | 0.00 | 0.00 | 58 | 1009.7 |
| 20260505180128 | 55 | 258 | 3.5 | 5.2 | 0.00 | 0.00 | 0.00 | 56 | 1009.8 |
| 20260505175925 | 55 | 315 | 2.6 | 5.2 | 0.00 | 0.00 | 0.00 | 58 | 1009.9 |
| 20260505175116 | 56 | 292 | 2.6 | 8.7 | 0.00 | 0.00 | 0.00 | 56 | 1009.9 |
| 20260505174712 | 56 | 258 | 3.5 | 7.8 | 0.00 | 0.00 | 0.00 | 56 | 1009.9 |
| 20260505174510 | 56 | 337 | 3.5 | 7.8 | 0.00 | 0.00 | 0.00 | 56 | 1009.4 |
| 20260505174308 | 56 | 337 | 4.3 | 5.2 | 0.00 | 0.00 | 0.00 | 56 | 1009.8 |
| 20260505174106 | 56 | 337 | 4.3 | 5.2 | 0.00 | 0.00 | 0.00 | 56 | 1010.0 |
| 20260505173701 | 56 | 348 | 2.6 | 5.2 | 0.00 | 0.00 | 0.00 | 57 | 1010.2 |
| 20260505172851 | 56 | 337 | 2.6 | 5.2 | 0.00 | 0.00 | 0.00 | 57 | 1010.1 |
| 20260505172447 | 56 | 337 | 2.6 | 5.2 | 0.00 | 0.00 | 0.00 | 57 | 1010.0 |
| 20260505172042 | 56 | 315 | 5.2 | 5.2 | 0.00 | 0.00 | 0.00 | 54 | 1009.7 |
| 20260505171840 | 56 | 337 | 3.5 | 5.2 | 0.00 | 0.00 | 0.00 | 56 | 1009.9 |
| 20260505171638 | 56 | 292 | 2.6 | 5.2 | 0.00 | 0.00 | 0.00 | 55 | 1009.8 |
| 20260505171233 | 56 | 348 | 3.5 | 6.1 | 0.00 | 0.00 | 0.00 | 55 | 1010.0 |
| 20260505171031 | 56 | 315 | 2.6 | 6.1 | 0.00 | 0.00 | 0.00 | 55 | 1009.9 |
| 20260505170627 | 56 | 337 | 4.3 | 5.2 | 0.00 | 0.00 | 0.00 | 56 | 1010.0 |
| 20260505170425 | 56 | 315 | 2.6 | 7.8 | 0.00 | 0.00 | 0.00 | 64 | 1009.9 |
| 20260505170222 | 56 | 337 | 4.3 | 7.8 | 0.00 | 0.00 | 0.00 | 56 | 1009.9 |
| 20260505165614 | 56 | 337 | 3.5 | 112.1 | 0.00 | 0.00 | 0.00 | 55 | 1010.1 |
| 20260505165415 | 56 | 348 | 4.3 | 112.1 | 0.00 | 0.00 | 0.00 | 55 | 1010.2 |
| 20260505165037 | 56 | 337 | 5.2 | 6.1 | 0.00 | 0.00 | 0.36 | 57 | 1010.2 |
| 20260505164633 | 56 | 258 | 5.2 | 7.0 | 0.00 | 0.00 | 0.36 | 55 | 1010.2 |
| 20260505164505 | 56 | 315 | 5.2 | 7.0 | 0.00 | 0.00 | 0.36 | 55 | 1009.9 |
| 20260505164431 | 56 | 315 | 5.2 | 7.0 | 0.00 | 0.00 | 0.36 | 55 | 1009.9 |
| 20260505164026 | 56 | 337 | 1.7 | 7.8 | 0.00 | 0.00 | 0.36 | 55 | 1010.4 |
| 20260505163622 | 56 | 315 | 3.5 | 6.1 | 0.00 | 0.00 | 0.36 | 55 | 1009.9 |
| 20260505163217 | 56 | 337 | 3.5 | 7.8 | 0.00 | 0.00 | 0.36 | 55 | 1010.4 |
| 20260505162813 | 56 | 337 | 7.0 | 8.7 | 0.00 | 0.00 | 0.35 | 55 | 1010.1 |
| 20260505162408 | 56 | 225 | 7.8 | 9.6 | 0.00 | 0.00 | 0.35 | 55 | 1010.1 |
| 20260505162206 | 56 | 315 | 6.1 | 6.1 | 0.00 | 0.00 | 0.35 | 54 | 1010.2 |
| 20260505162003 | 56 | 337 | 4.3 | 7.0 | 0.00 | 0.00 | 0.35 | 53 | 1010.2 |
| 20260505161801 | 56 | 292 | 5.2 | 7.0 | 0.00 | 0.00 | 0.35 | 55 | 1010.2 |
| 20260505161559 | 56 | 337 | 5.2 | 7.8 | 0.00 | 0.00 | 0.35 | 56 | 1010.2 |
| 20260505161357 | 56 | 292 | 5.2 | 7.8 | 0.00 | 0.00 | 0.35 | 55 | 1010.0 |
| 20260505160549 | 56 | 292 | 3.5 | 5.2 | 0.00 | 0.00 | 0.35 | 55 | 1010.4 |
| 20260505160346 | 56 | 303 | 3.5 | 8.7 | 0.00 | 0.00 | 0.35 | 55 | 1010.3 |
| 20260505160143 | 56 | 225 | 4.3 | 8.7 | 0.00 | 0.00 | 0.35 | 54 | 1010.1 |
| 20260505152300 | 57 | 315 | 5.2 | 8.7 | 0.00 | 0.00 | 0.34 | 50 | 1010.3 |
| 20260505151855 | 57 | 315 | 7.0 | 9.6 | 0.00 | 0.00 | 0.34 | 49 | 1010.3 |
| 20260505151654 | 57 | 337 | 3.5 | 7.8 | 0.00 | 0.00 | 0.34 | 48 | 1010.2 |
| 20260505151249 | 58 | 315 | 6.1 | 7.8 | 0.00 | 0.00 | 0.34 | 48 | 1010.1 |
| 20260505151046 | 58 | 292 | 2.6 | 10.4 | 0.00 | 0.00 | 0.33 | 47 | 1010.1 |
| 20260505150641 | 58 | 292 | 1.7 | 8.7 | 0.00 | 0.00 | 0.33 | 47 | 1010.1 |
| 20260505150237 | 59 | 292 | 6.1 | 11.3 | 0.00 | 0.00 | 0.33 | 45 | 1010.0 |
| 20260505140602 | 69 | 315 | 0.9 | 2.6 | 0.00 | 0.00 | 0.01 | 34 | 1008.9 |
| 20260505140438 | 69 | 315 | 1.7 | 3.5 | 0.00 | 0.00 | 0.01 | 34 | 1008.8 |
| 20260505140359 | 69 | 315 | 1.7 | 3.5 | 0.00 | 0.00 | 0.01 | 34 | 1008.8 |
| 20260505140157 | 69 | 315 | 2.6 | 5.2 | 0.00 | 0.00 | 0.01 | 34 | 1008.9 |